User: anonymous   Login
Location: Caltech
(34.1382°N, 118.1253°W)
Time: 13:41:08
(UTC-07:00)
Language:

Cosmos 1943 Rocket - Orbit

View from above orbital plane
View from above orbital plane
View from above satellite
View from above satellite

Ground track
Ground track

The orbit data is extracted from the following two-line orbital elements,

1 19120U 88039B   16120.55418399 -.00000129 +00000-0 -38780-4 0  9999
2 19120 071.0127 118.8886 0019681 103.8860 256.4456 14.19146304447431
Epoch (UTC): 29 April 2016 13:18:01
Eccentricity: 0.0019681
inclination: 71.0127°
perigee height: 814 km
apogee height: 842 km
right ascension of ascending node: 118.8886°
argument of perigee: 103.8860°
revolutions per day: 14.19146304
mean anomaly at epoch: 256.4456°
orbit number at epoch: 44743

The dashed part of the orbit path shows where the satellite is in the earth's shadow,  

DLR